Weather in Siddharthanagar

Nepal     27°31′07″N   83°26′54″E
temp.,
°C
wind,
m/s
gust,
m/s
humid.,
%
clouds,
%
prec.,
mm/h
press.,
hPa
HPBL,
m
14 june, mon
mon1423:45+26nnw3484100 1.1 999121
02:45+26nw2387100 0.6 997130
05:45+25nnw3693100 2.9 998256
08:45+26ene2584100 1.5 999165
11:45+26nne2584100 5.2 999214
14:45+24ene4796100 15.0 996330
17:45+23nne4797100 53.0 995313
20:45+24ne3794100 16.3 996256
15 june, tue
tue1523:45+24nnw4794100 25.2 996210
02:45+24ne4893100 15.6 994222
05:45+24ne259198 20.4 995149
08:45+24nne4698100 41.3 996224
11:45+25ene2491100 57.1 997209
14:45+24nne359491 23.9 996228
17:45+25se1292100 24.0 995107
20:45+25nne1189100 0.0 99729
16 june, wed
wed1623:45+25nw2290100 0.4 99824
02:45+25ne2489100 2.2 99689
05:45+24nne1189100 4.8 99726
08:45+24se2294100 5.4 999137
11:45+23ene2499100 48.3 1000253
14:45+26ne2484100 8.7 998292
17:45+25ne3686100 9.9 997132
20:45+25ene3684100 0.1 998115
17 june, thu
thu1723:45+24n478995 1.7 999158
02:45+25wnw2288100 1.6 99834
05:45+24nw238852 2.3 99862
08:45+29w117077 0.0 999332
11:45+31se2264100 0.1 999708
14:45+27s228483 1.2 998113
17:45+30nw227461 1.3 997258
20:45+28wnw118299 0.0 99915
18 june, fri
fri1823:45+27e1181100 0.1 99912
02:45+26ene2388100 3.6 99967
05:45+26ne248794 4.8 99996
08:45+28ese3477100 0.4 1001297
11:45+24ne5695100 14.1 1001242
14:45+26n4687100 4.8 1000145
17:45+27ene1182100 5.9 100013
20:45+26e2282100 0.7 100230